Weather History for Nadi, Fiji

Change the Weather History Date:

Sunday, August 25, 2013

  Actual Average Record
Temperature  
Mean Temperature 78 °F -  
Max Temperature 86 °F 81 °F 87 °F (2008)
Min Temperature 69 °F 66 °F 57 °F (2003)
Cooling Degree Days 12    
Growing Degree Days 28 (Base 50)    
Moisture  
Dew Point 68 °F    
Average Humidity 75    
Maximum Humidity 94    
Minimum Humidity 58    
Precipitation  
Precipitation 0.00 in 0.10 in - ()
Sea Level Pressure  
Sea Level Pressure 29.94 in    
Wind  
Wind Speed 5 mph ()    
Max Wind Speed 17 mph    
Max Gust Speed -    
Visibility 7.1 miles    
Events      
Averages and records for this station are not official NWS values.
T = Trace of Precipitation, MM = Missing Value Source: Averaged Metar Reports

Daily Weather History Graph

Daily Weather History Graph

Search for Another Location

Airport:

Trip Planner

Search our weather history database for the weather conditions in past years. The results will help you decide how hot, cold, wet, or windy it might be!

Date:

Astronomy

Aug. 25, 2013 Rise Set
Actual Time 6:22 AM FJT 6:02 PM FJT
Civil Twilight 6:00 AM FJT 6:24 PM FJT
Nautical Twilight 5:35 AM FJT 6:49 PM FJT
Astronomical Twilight 5:10 AM FJT 7:14 PM FJT
Moon 9:53 PM FJT (8/25) 8:59 AM FJT (8/25)
Length of Visible Light 12h 23m
Length of Day
11h 39m
Waning Gibbous, 82% of the Moon is Illuminated
Aug 25
Waning Gibbous
Aug 28
Last Quarter
Sep 5
New
Sep 13
First Quarter
Sep 19
Full

Hourly Weather History & Observations

Time (FJT) Temp. Heat Index Dew Point Humidity Pressure Visibility Wind Dir Wind Speed Gust Speed Precip Events Conditions
12:00 AM 74 °F - 70 °F 82% 29.97 in 12 mi SSE 5.8 mph - -   Partly Cloudy
12:00 AM 73.4 °F - 69.8 °F 88% 29.95 in 6.2 mi SSE 5.8 mph - N/A   Scattered Clouds
1:00 AM 73.4 °F - 69.8 °F 88% 29.95 in 6.2 mi Calm Calm - N/A   Scattered Clouds
2:00 AM 71.6 °F - 69.8 °F 94% 29.92 in 6.2 mi Calm Calm - N/A   Scattered Clouds
3:00 AM 71 °F - 69 °F 92% 29.92 in 12 mi Calm Calm - -   Partly Cloudy
3:00 AM 71.6 °F - 69.8 °F 94% 29.92 in 6.2 mi Calm Calm - N/A   Scattered Clouds
4:00 AM 71.6 °F - 69.8 °F 94% 29.92 in 6.2 mi ESE 5.8 mph - N/A   Scattered Clouds
5:00 AM 69.8 °F - 68.0 °F 94% 29.92 in 6.2 mi Calm Calm - N/A   Scattered Clouds
6:00 AM 72 °F - 70 °F 90% 29.94 in 12 mi East 5.8 mph - -   Partly Cloudy
6:00 AM 71.6 °F - 69.8 °F 94% 29.92 in 6.2 mi East 5.8 mph - N/A   Scattered Clouds
7:00 AM 71.6 °F - 69.8 °F 94% 29.95 in 6.2 mi East 5.8 mph - N/A   Scattered Clouds
8:00 AM 75.2 °F - 69.8 °F 83% 29.95 in 6.2 mi ESE 5.8 mph - N/A   Mostly Cloudy
9:00 AM 79 °F - 70 °F 66% 29.98 in 31 mi SE 5.8 mph - -   Partly Cloudy
9:00 AM 78.8 °F - 69.8 °F 74% 29.98 in 6.2 mi SE 5.8 mph - N/A   Partly Cloudy
10:00 AM 84.2 °F 88.4 °F 69.8 °F 62% 29.98 in 31.1 mi SSE 5.8 mph - N/A   Partly Cloudy
11:00 AM 86.0 °F 90.4 °F 69.8 °F 58% 29.95 in 6.2 mi ENE 6.9 mph - N/A   Partly Cloudy
12:00 PM 77.0 °F - 66.2 °F 69% 29.92 in 31.1 mi SE 3.5 mph - N/A   Scattered Clouds
1:00 PM 84.2 °F 88.4 °F 69.8 °F 62% 29.92 in 6.2 mi South 11.5 mph - N/A   Scattered Clouds
2:00 PM 86.0 °F 90.4 °F 69.8 °F 58% 29.89 in 6.2 mi South 11.5 mph - N/A   Partly Cloudy
3:00 PM 84.2 °F 88.4 °F 69.8 °F 62% 29.89 in 6.2 mi South 17.3 mph - N/A   Scattered Clouds
4:00 PM 82.4 °F 85.4 °F 68.0 °F 62% 29.89 in 6.2 mi SSE 13.8 mph - N/A   Scattered Clouds
5:00 PM 80.6 °F 82.7 °F 66.2 °F 61% 29.92 in 6.2 mi SSE 11.5 mph - N/A   Scattered Clouds
6:00 PM 75 °F - 65 °F 64% 29.94 in 31 mi SSE 12.7 mph - -   Partly Cloudy
6:00 PM 75.2 °F - 66.2 °F 73% 29.92 in 6.2 mi SSE 12.7 mph - N/A   Mostly Cloudy
7:00 PM 75.2 °F - 64.4 °F 69% 29.95 in 6.2 mi SE 12.7 mph - N/A   Mostly Cloudy
8:00 PM 75.2 °F - 62.6 °F 65% 29.98 in 6.2 mi SE 8.1 mph - N/A   Mostly Cloudy
9:00 PM 74 °F - 62 °F 58% 29.99 in 12 mi ESE 8.1 mph - -   Partly Cloudy
9:00 PM 73.4 °F - 62.6 °F 69% 29.98 in 6.2 mi ESE 8.1 mph - N/A   Scattered Clouds
10:00 PM 73.4 °F - 62.6 °F 69% 30.01 in 6.2 mi SE 5.8 mph - N/A   Scattered Clouds
11:00 PM 75.2 °F - 62.6 °F 65% 30.01 in 6.2 mi SE 11.5 mph - N/A   Mostly Cloudy